Fort Stockton, TX

7:10 AM CDT on April 21, 2018 (GMT -0500)
Fort Stockton-Pecos County

Weather History for KFST - August, 2013

Change the Weather History Date:

Friday, August 2, 2013

  Actual Average Record
Temperature  
Mean Temperature 86 °F -  
Max Temperature 100 °F 93 °F 106 °F (2012)
Min Temperature 72 °F 69 °F 64 °F (2005)
Cooling Degree Days 21    
Growing Degree Days 36 (Base 50)    
Moisture  
Dew Point 49 °F    
Average Humidity 28    
Maximum Humidity 44    
Minimum Humidity 15    
Precipitation  
Precipitation 0.00 in - - ()
Sea Level Pressure  
Sea Level Pressure 29.84 in    
Wind  
Wind Speed 11 mph (SSE)    
Max Wind Speed 17 mph    
Max Gust Speed 25 mph    
Visibility 10 miles    
Events      
Averages and records for this station are not official NWS values.
T = Trace of Precipitation, MM = Missing Value Source: NWS Daily Summary

Daily Weather History Graph

Daily Weather History Graph

Search for Another Location

Airport or City:

Astronomy

Aug. 02, 2013 Rise Set
Actual Time 7:09 AM CDT 8:45 PM CDT
Civil Twilight 6:43 AM CDT 9:11 PM CDT
Nautical Twilight 6:12 AM CDT 9:42 PM CDT
Astronomical Twilight 5:39 AM CDT 10:15 PM CDT
Moon 3:35 AM CDT (8/2) 5:42 PM CDT (8/2)
Length of Visible Light 14h 28m
Length of Day
13h 35m
Waning Crescent, 15% of the Moon is Illuminated
Aug 2
Waning Crescent
Aug 6
New
Aug 14
First Quarter
Aug 20
Full
Aug 28
Last Quarter

Hourly Weather History & Observations

Time (CDT) Temp. Heat Index Dew Point Humidity Pressure Visibility Wind Dir Wind Speed Gust Speed Precip Events Conditions
12:53 AM 82.0 °F - 48.9 °F 31% 29.87 in 10.0 mi South 13.8 mph - N/A   Clear
1:53 AM 81.0 °F - 46.9 °F 30% 29.85 in 10.0 mi South 16.1 mph - N/A   Clear
2:53 AM 79.0 °F - 46.0 °F 31% 29.85 in 10.0 mi South 11.5 mph - N/A   Clear
3:53 AM 75.9 °F - 46.9 °F 36% 29.85 in 10.0 mi SSE 11.5 mph - N/A   Clear
4:53 AM 73.0 °F - 48.0 °F 41% 29.85 in 10.0 mi SSW 5.8 mph - N/A   Clear
5:53 AM 72.0 °F - 48.0 °F 43% 29.86 in 10.0 mi South 5.8 mph - N/A   Clear
6:53 AM 72.0 °F - 48.9 °F 44% 29.87 in 10.0 mi South 5.8 mph - N/A   Clear
7:53 AM 75.0 °F - 51.1 °F 43% 29.88 in 10.0 mi SSE 8.1 mph - N/A   Clear
8:53 AM 80.1 °F - 52.0 °F 38% 29.91 in 10.0 mi South 5.8 mph - N/A   Clear
9:53 AM 84.9 °F - 52.0 °F 32% 29.90 in 10.0 mi South 8.1 mph - N/A   Clear
10:53 AM 88.0 °F 85.7 °F 53.1 °F 30% 29.90 in 10.0 mi SSW 5.8 mph - N/A   Clear
11:53 AM 93.0 °F 90.6 °F 53.1 °F 26% 29.89 in 10.0 mi WSW 12.7 mph - N/A   Clear
12:53 PM 93.9 °F - 52.0 °F 24% 29.87 in 10.0 mi Variable 6.9 mph - N/A   Clear
1:53 PM 98.1 °F - 46.9 °F 18% 29.84 in 10.0 mi Variable 3.5 mph - N/A   Clear
2:53 PM 98.1 °F - 44.1 °F 16% 29.82 in 10.0 mi SE 5.8 mph - N/A   Clear
3:53 PM 99.0 °F - 43.0 °F 15% 29.80 in 10.0 mi SE 8.1 mph 18.4 mph N/A   Partly Cloudy
4:53 PM 100.0 °F - 45.0 °F 15% 29.78 in 10.0 mi SSE 9.2 mph - N/A   Overcast
5:53 PM 99.0 °F - 46.0 °F 16% 29.78 in 10.0 mi SE 10.4 mph 16.1 mph N/A   Clear
6:53 PM 98.1 °F - 45.0 °F 16% 29.77 in 10.0 mi ESE 12.7 mph 19.6 mph N/A   Clear
7:53 PM 96.1 °F - 44.1 °F 17% 29.77 in 10.0 mi SE 12.7 mph 20.7 mph N/A   Clear
8:53 PM 91.9 °F - 48.9 °F 23% 29.79 in 10.0 mi SSE 15.0 mph 19.6 mph N/A   Clear
9:53 PM 88.0 °F - 52.0 °F 29% 29.81 in 10.0 mi SSE 11.5 mph - N/A   Clear
10:53 PM 86.0 °F - 52.0 °F 31% 29.82 in 10.0 mi SSE 15.0 mph 21.9 mph N/A   Clear
11:53 PM 84.0 °F 82.5 °F 53.1 °F 34% 29.83 in 10.0 mi SSE 17.3 mph 25.3 mph N/A   Clear